Weather History for KSYR - March, 2013

Change the Weather History Date:

Saturday, March 9, 2013

  Actual Average Record
Temperature  
Mean Temperature 36 °F 31 °F  
Max Temperature 48 °F 40 °F 78 °F (2000)
Min Temperature 24 °F 23 °F -6 °F (1943)
Degree Days  
Heating Degree Days 29 34  
Month to date heating degree days 312 314  
Since 1 July heating degree days 4683 5145  
Cooling Degree Days 0 0  
Month to date cooling degree days 0 0  
Year to date cooling degree days 0 0  
Moisture  
Dew Point 24 °F    
Average Humidity 63    
Maximum Humidity 92    
Minimum Humidity 34    
Precipitation  
Precipitation 0.00 in 0.09 in 0.61 in (1928)
Month to date precipitation 0.16 0.78  
Year to date precipitation 4.58 5.35  
Snow  
Snow 0.00 in 0.80 in 6.80 in (2001)
Month to date snowfall 3.6 7.2  
Since 1 July snowfall 86.8 109.1  
Snow Depth T in    
Sea Level Pressure  
Sea Level Pressure 30.35 in    
Wind  
Wind Speed 3 mph (West)    
Max Wind Speed 8 mph    
Max Gust Speed 13 mph    
Visibility 7 miles    
Events Fog    
T = Trace of Precipitation, MM = Missing Value Source: NWS Daily Summary

Daily Weather History Graph

Daily Weather History Graph

Search for Another Location

Airport or City:

Trip Planner

Search our weather history database for the weather conditions in past years. The results will help you decide how hot, cold, wet, or windy it might be!

Date:

Astronomy

Mar. 09, 2013 Rise Set
Actual Time 6:26 AM EST 6:03 PM EST
Civil Twilight 5:58 AM EST 6:32 PM EST
Nautical Twilight 5:25 AM EST 7:05 PM EST
Astronomical Twilight 4:52 AM EST 7:38 PM EST
Moon 4:52 AM EST (3/9) 4:01 PM EST (3/9)
Length of Visible Light 12h 33m
Length of Day
11h 37m
Waning Crescent, 5% of the Moon is Illuminated
Mar 9
Waning Crescent
Mar 11
New
Mar 19
First Quarter
Mar 27
Full
Apr 3
Last Quarter

Hourly Weather History & Observations

Time (EST) Temp. Windchill Dew Point Humidity Pressure Visibility Wind Dir Wind Speed Gust Speed Precip Events Conditions
12:54 AM 26.1 °F - 21.0 °F 81% 30.36 in 10.0 mi Calm Calm - N/A   Clear
1:54 AM 25.0 °F - 19.9 °F 81% 30.36 in 10.0 mi Calm Calm - N/A   Clear
2:54 AM 24.1 °F - 19.0 °F 81% 30.35 in 10.0 mi Calm Calm - N/A   Clear
3:03 AM 24.8 °F - 19.4 °F 80% 30.34 in 10.0 mi Calm Calm - N/A   Scattered Clouds
3:54 AM 26.1 °F - 21.9 °F 84% 30.35 in 10.0 mi Calm Calm - N/A   Mostly Cloudy
4:28 AM 28.4 °F 24.6 °F 24.8 °F 86% 30.35 in 2.0 mi West 3.5 mph - N/A   Overcast
4:31 AM 28.4 °F 23.3 °F 24.8 °F 86% 30.35 in 1.5 mi WNW 4.6 mph - N/A   Overcast
4:47 AM 28.4 °F - 26.6 °F 93% 30.35 in 0.8 mi Calm Calm - N/A   Mist
4:54 AM 30.0 °F - 28.0 °F 92% 30.36 in 0.8 mi Calm Calm - N/A   Mist
5:54 AM 30.0 °F 25.2 °F 27.0 °F 88% 30.37 in 0.8 mi WSW 4.6 mph - N/A   Mist
6:54 AM 28.9 °F - 27.0 °F 92% 30.39 in 0.5 mi Calm Calm - N/A Fog Light Freezing Fog
7:54 AM 28.9 °F 23.9 °F 27.0 °F 92% 30.40 in 0.5 mi SW 4.6 mph - N/A Fog Light Freezing Fog
8:29 AM 28.4 °F 22.2 °F 26.6 °F 93% 30.40 in 1.5 mi SW 5.8 mph - N/A   Overcast
8:38 AM 30.2 °F 25.4 °F 28.4 °F 93% 30.40 in 0.5 mi SW 4.6 mph - N/A   Overcast
8:54 AM 30.0 °F 25.2 °F 28.0 °F 92% 30.41 in 1.0 mi SW 4.6 mph - N/A   Overcast
9:27 AM 30.2 °F 25.4 °F 28.4 °F 93% 30.40 in 3.0 mi SW 4.6 mph - N/A   Overcast
9:54 AM 32.0 °F 28.7 °F 28.9 °F 88% 30.40 in 7.0 mi Variable 3.5 mph - N/A   Mostly Cloudy
10:19 AM 33.8 °F 30.8 °F 28.4 °F 81% 30.40 in 10.0 mi WSW 3.5 mph - N/A   Mostly Cloudy
10:44 AM 35.6 °F 31.7 °F 28.4 °F 75% 30.40 in 10.0 mi Variable 4.6 mph - N/A   Scattered Clouds
10:54 AM 36.0 °F 33.3 °F 28.9 °F 76% 30.40 in 10.0 mi West 3.5 mph - N/A   Scattered Clouds
11:54 AM 42.1 °F - 28.0 °F 58% 30.37 in 10.0 mi Calm Calm - N/A   Scattered Clouds
12:54 PM 44.1 °F 39.5 °F 24.1 °F 45% 30.35 in 10.0 mi NW 8.1 mph - N/A   Scattered Clouds
1:54 PM 46.0 °F 43.1 °F 23.0 °F 40% 30.34 in 10.0 mi West 5.8 mph - N/A   Scattered Clouds
2:54 PM 46.9 °F - 21.9 °F 37% 30.33 in 10.0 mi NNW 6.9 mph - N/A   Partly Cloudy
3:54 PM 48.0 °F - 21.0 °F 34% 30.32 in 10.0 mi West 3.5 mph - N/A   Partly Cloudy
4:54 PM 46.9 °F - 23.0 °F 39% 30.31 in 10.0 mi North 3.5 mph - N/A   Scattered Clouds
5:54 PM 41.0 °F 37.1 °F 21.0 °F 45% 30.31 in 10.0 mi NNE 5.8 mph - N/A   Mostly Cloudy
6:54 PM 36.0 °F - 21.0 °F 55% 30.32 in 10.0 mi Calm Calm - N/A   Mostly Cloudy
7:54 PM 36.0 °F - 19.9 °F 52% 30.32 in 10.0 mi Calm Calm - N/A   Mostly Cloudy
8:54 PM 33.1 °F 30.0 °F 21.0 °F 61% 30.31 in 10.0 mi East 3.5 mph - N/A   Scattered Clouds
9:54 PM 33.1 °F - 21.0 °F 61% 30.30 in 10.0 mi Calm Calm - N/A   Partly Cloudy
10:54 PM 30.0 °F - 21.0 °F 69% 30.30 in 10.0 mi Calm Calm - N/A   Partly Cloudy
11:54 PM 28.9 °F 22.8 °F 21.0 °F 72% 30.27 in 10.0 mi ESE 5.8 mph - N/A   Partly Cloudy